Year,Month,Day,Hour,Minute,Value (Times are PST for temperature in C)
2007,08,11,00,00,11.70
2007,08,11,00,01,11.70
2007,08,11,00,02,11.70
2007,08,11,00,03,11.60
2007,08,11,00,04,11.50
2007,08,11,00,05,11.40
2007,08,11,00,06,11.40
2007,08,11,00,07,11.40
2007,08,11,00,08,11.30
2007,08,11,00,09,11.30
2007,08,11,00,10,11.30
2007,08,11,00,11,11.30
2007,08,11,00,12,11.30
2007,08,11,00,13,11.30
2007,08,11,00,14,11.20
2007,08,11,00,15,11.20
2007,08,11,00,16,11.20
2007,08,11,00,17,11.20
2007,08,11,00,18,11.20
2007,08,11,00,19,11.30
2007,08,11,00,20,11.30
2007,08,11,00,21,11.30
2007,08,11,00,22,11.30
2007,08,11,00,23,11.30
2007,08,11,00,24,11.30
2007,08,11,00,25,11.30
2007,08,11,00,26,11.30
2007,08,11,00,27,11.30
2007,08,11,00,28,11.40
2007,08,11,00,29,11.40
2007,08,11,00,30,11.40
2007,08,11,00,31,11.40
2007,08,11,00,32,11.40
2007,08,11,00,33,11.40
2007,08,11,00,34,11.40
2007,08,11,00,35,11.40
2007,08,11,00,36,11.40
2007,08,11,00,37,11.40
2007,08,11,00,38,11.40
2007,08,11,00,39,11.40
2007,08,11,00,40,11.40
2007,08,11,00,41,11.40
2007,08,11,00,42,11.40
2007,08,11,00,43,11.40
2007,08,11,00,44,11.40
2007,08,11,00,45,11.40
2007,08,11,00,46,11.30
2007,08,11,00,47,11.30
2007,08,11,00,48,11.30
2007,08,11,00,49,11.30
2007,08,11,00,50,11.30
2007,08,11,00,51,11.30
2007,08,11,00,52,11.30
2007,08,11,00,53,11.30
2007,08,11,00,54,11.30
2007,08,11,00,55,11.30
2007,08,11,00,56,11.30
2007,08,11,00,57,11.40
2007,08,11,00,58,11.40
2007,08,11,00,59,11.40
2007,08,11,01,00,11.40
2007,08,11,01,01,11.40
2007,08,11,01,02,11.40
2007,08,11,01,03,11.40
2007,08,11,01,04,11.40
2007,08,11,01,05,11.40
2007,08,11,01,06,11.40
2007,08,11,01,07,11.40
2007,08,11,01,08,11.40
2007,08,11,01,09,11.40
2007,08,11,01,10,11.40
2007,08,11,01,11,11.40
2007,08,11,01,12,11.40
2007,08,11,01,13,11.40
2007,08,11,01,14,11.40
2007,08,11,01,15,11.40
2007,08,11,01,16,11.40
2007,08,11,01,17,11.40
2007,08,11,01,18,11.40
2007,08,11,01,19,11.30
2007,08,11,01,20,11.30
2007,08,11,01,21,11.30
2007,08,11,01,22,11.20
2007,08,11,01,23,11.20
2007,08,11,01,24,11.20
2007,08,11,01,25,11.20
2007,08,11,01,26,11.20
2007,08,11,01,27,11.20
2007,08,11,01,28,11.20
2007,08,11,01,29,11.20
2007,08,11,01,30,11.20
2007,08,11,01,31,11.20
2007,08,11,01,32,11.20
2007,08,11,01,33,11.20
2007,08,11,01,34,11.30
2007,08,11,01,35,11.30
2007,08,11,01,36,11.30
2007,08,11,01,37,11.30
2007,08,11,01,38,11.30
2007,08,11,01,39,11.30
2007,08,11,01,40,11.20
2007,08,11,01,41,11.20
2007,08,11,01,42,11.20
2007,08,11,01,43,11.20
2007,08,11,01,44,11.20
2007,08,11,01,45,11.20
2007,08,11,01,46,11.20
2007,08,11,01,47,11.20
2007,08,11,01,48,11.20
2007,08,11,01,49,11.20
2007,08,11,01,50,11.30
2007,08,11,01,51,11.30
2007,08,11,01,52,11.30
2007,08,11,01,53,11.30
2007,08,11,01,54,11.30
2007,08,11,01,55,11.30
2007,08,11,01,56,11.30
2007,08,11,01,57,11.20
2007,08,11,01,58,11.20
2007,08,11,01,59,11.20
2007,08,11,02,00,11.10
2007,08,11,02,01,11.10
2007,08,11,02,02,11.10
2007,08,11,02,03,11.10
2007,08,11,02,04,11.10
2007,08,11,02,05,11.00
2007,08,11,02,06,10.90
2007,08,11,02,07,10.90
2007,08,11,02,08,10.90
2007,08,11,02,09,10.90
2007,08,11,02,10,10.90
2007,08,11,02,11,10.90
2007,08,11,02,12,10.90
2007,08,11,02,13,10.90
2007,08,11,02,14,10.80
2007,08,11,02,15,10.80
2007,08,11,02,16,10.80
2007,08,11,02,17,10.70
2007,08,11,02,18,10.70
2007,08,11,02,19,10.70
2007,08,11,02,20,10.70
2007,08,11,02,21,10.70
2007,08,11,02,22,10.70
2007,08,11,02,23,10.60
2007,08,11,02,24,10.60
2007,08,11,02,25,10.60
2007,08,11,02,26,10.60
2007,08,11,02,27,10.50
2007,08,11,02,28,10.40
2007,08,11,02,29,10.40
2007,08,11,02,30,10.30
2007,08,11,02,31,10.20
2007,08,11,02,32,10.10
2007,08,11,02,33,10.10
2007,08,11,02,34,10.00
2007,08,11,02,35,9.90
2007,08,11,02,36,9.90
2007,08,11,02,37,9.90
2007,08,11,02,38,9.80
2007,08,11,02,39,9.80
2007,08,11,02,40,9.80
2007,08,11,02,41,9.70
2007,08,11,02,42,9.70
2007,08,11,02,43,9.70
2007,08,11,02,44,9.70
2007,08,11,02,45,9.80
2007,08,11,02,46,9.80
2007,08,11,02,47,9.80
2007,08,11,02,48,9.80
2007,08,11,02,49,9.80
2007,08,11,02,50,9.80
2007,08,11,02,51,9.70
2007,08,11,02,52,9.70
2007,08,11,02,53,9.70
2007,08,11,02,54,9.70
2007,08,11,02,55,9.60
2007,08,11,02,56,9.60
2007,08,11,02,57,9.60
2007,08,11,02,58,9.60
2007,08,11,02,59,9.50
2007,08,11,03,00,9.50
2007,08,11,03,01,9.50
2007,08,11,03,02,9.50
2007,08,11,03,03,9.50
2007,08,11,03,04,9.40
2007,08,11,03,05,9.40
2007,08,11,03,06,9.40
2007,08,11,03,07,9.50
2007,08,11,03,08,9.40
2007,08,11,03,09,9.40
2007,08,11,03,10,9.40
2007,08,11,03,11,9.40
2007,08,11,03,12,9.30
2007,08,11,03,13,9.30
2007,08,11,03,14,9.30
2007,08,11,03,15,9.30
2007,08,11,03,16,9.30
2007,08,11,03,17,9.30
2007,08,11,03,18,9.30
2007,08,11,03,19,9.30
2007,08,11,03,20,9.30
2007,08,11,03,21,9.40
2007,08,11,03,22,9.40
2007,08,11,03,23,9.40
2007,08,11,03,24,9.50
2007,08,11,03,25,9.50
2007,08,11,03,26,9.60
2007,08,11,03,27,9.60
2007,08,11,03,28,9.70
2007,08,11,03,29,9.70
2007,08,11,03,30,9.70
2007,08,11,03,31,9.70
2007,08,11,03,32,9.80
2007,08,11,03,33,9.80
2007,08,11,03,34,9.80
2007,08,11,03,35,9.80
2007,08,11,03,36,9.70
2007,08,11,03,37,9.70
2007,08,11,03,38,9.70
2007,08,11,03,39,9.60
2007,08,11,03,40,9.60
2007,08,11,03,41,9.60
2007,08,11,03,42,9.60
2007,08,11,03,43,9.60
2007,08,11,03,44,9.50
2007,08,11,03,45,9.50
2007,08,11,03,46,9.50
2007,08,11,03,47,9.50
2007,08,11,03,48,9.50
2007,08,11,03,49,9.50
2007,08,11,03,50,9.50
2007,08,11,03,51,9.50
2007,08,11,03,52,9.50
2007,08,11,03,53,9.50
2007,08,11,03,54,9.50
2007,08,11,03,55,9.50
2007,08,11,03,56,9.50
2007,08,11,03,57,9.50
2007,08,11,03,58,9.40
2007,08,11,03,59,9.40
2007,08,11,04,00,9.40
2007,08,11,04,01,9.40
2007,08,11,04,02,9.40
2007,08,11,04,03,9.50
2007,08,11,04,04,9.50
2007,08,11,04,05,9.50
2007,08,11,04,06,9.50
2007,08,11,04,07,9.50
2007,08,11,04,08,9.50
2007,08,11,04,09,9.50
2007,08,11,04,10,9.40
2007,08,11,04,11,9.40
2007,08,11,04,12,9.40
2007,08,11,04,13,9.30
2007,08,11,04,14,9.30
2007,08,11,04,15,9.20
2007,08,11,04,16,9.20
2007,08,11,04,17,9.20
2007,08,11,04,18,9.20
2007,08,11,04,19,9.20
2007,08,11,04,20,9.20
2007,08,11,04,21,9.20
2007,08,11,04,22,9.20
2007,08,11,04,23,9.20
2007,08,11,04,24,9.20
2007,08,11,04,25,9.20
2007,08,11,04,26,9.20
2007,08,11,04,27,9.20
2007,08,11,04,28,9.20
2007,08,11,04,29,9.10
2007,08,11,04,30,9.10
2007,08,11,04,31,9.00
2007,08,11,04,32,9.00
2007,08,11,04,33,8.90
2007,08,11,04,34,8.90
2007,08,11,04,35,8.80
2007,08,11,04,36,8.80
2007,08,11,04,37,8.80
2007,08,11,04,38,8.70
2007,08,11,04,39,8.80
2007,08,11,04,40,8.80
2007,08,11,04,41,8.80
2007,08,11,04,42,8.80
2007,08,11,04,43,8.80
2007,08,11,04,44,8.80
2007,08,11,04,45,8.90
2007,08,11,04,46,8.90
2007,08,11,04,47,8.90
2007,08,11,04,48,8.90
2007,08,11,04,49,9.00
2007,08,11,04,50,9.00
2007,08,11,04,51,9.00
2007,08,11,04,52,9.00
2007,08,11,04,53,9.00
2007,08,11,04,54,9.00
2007,08,11,04,55,9.00
2007,08,11,04,56,9.00
2007,08,11,04,57,9.00
2007,08,11,04,58,9.00
2007,08,11,04,59,9.00
2007,08,11,05,00,9.00
2007,08,11,05,01,9.10
2007,08,11,05,02,9.20
2007,08,11,05,03,9.20
2007,08,11,05,04,9.20
2007,08,11,05,05,9.20
2007,08,11,05,06,9.20
2007,08,11,05,07,9.20
2007,08,11,05,08,9.30
2007,08,11,05,09,9.30
2007,08,11,05,10,9.30
2007,08,11,05,11,9.30
2007,08,11,05,12,9.40
2007,08,11,05,13,9.40
2007,08,11,05,14,9.40
2007,08,11,05,15,9.50
2007,08,11,05,16,9.50
2007,08,11,05,17,9.40
2007,08,11,05,18,9.30
2007,08,11,05,19,9.20
2007,08,11,05,20,9.00
2007,08,11,05,21,8.90
2007,08,11,05,22,8.70
2007,08,11,05,23,8.60
2007,08,11,05,24,8.50
2007,08,11,05,25,8.50
2007,08,11,05,26,8.40
2007,08,11,05,27,8.30
2007,08,11,05,28,8.30
2007,08,11,05,29,8.30
2007,08,11,05,30,8.30
2007,08,11,05,31,8.30
2007,08,11,05,32,8.30
2007,08,11,05,33,8.30
2007,08,11,05,34,8.30
2007,08,11,05,35,8.30
2007,08,11,05,36,8.30
2007,08,11,05,37,8.40
2007,08,11,05,38,8.40
2007,08,11,05,39,8.40
2007,08,11,05,40,8.40
2007,08,11,05,41,8.40
2007,08,11,05,42,8.50
2007,08,11,05,43,8.50
2007,08,11,05,44,8.50
2007,08,11,05,45,8.60
2007,08,11,05,46,8.70
2007,08,11,05,47,8.70
2007,08,11,05,48,8.70
2007,08,11,05,49,8.70
2007,08,11,05,50,8.70
2007,08,11,05,51,8.60
2007,08,11,05,52,8.50
2007,08,11,05,53,8.50
2007,08,11,05,54,8.40
2007,08,11,05,55,8.40
2007,08,11,05,56,8.30
2007,08,11,05,57,8.30
2007,08,11,05,58,8.30
2007,08,11,05,59,8.30
2007,08,11,06,00,8.30
2007,08,11,06,01,8.30
2007,08,11,06,02,8.40
2007,08,11,06,03,8.40
2007,08,11,06,04,8.50
2007,08,11,06,05,8.50
2007,08,11,06,06,8.60
2007,08,11,06,07,8.60
2007,08,11,06,08,8.60
2007,08,11,06,09,8.60
2007,08,11,06,10,8.70
2007,08,11,06,11,8.70
2007,08,11,06,12,8.70
2007,08,11,06,13,8.70
2007,08,11,06,14,8.70
2007,08,11,06,15,8.70
2007,08,11,06,16,8.60
2007,08,11,06,17,8.60
2007,08,11,06,18,8.60
2007,08,11,06,19,8.50
2007,08,11,06,20,8.50
2007,08,11,06,21,8.50
2007,08,11,06,22,8.50
2007,08,11,06,23,8.50
2007,08,11,06,24,8.50
2007,08,11,06,25,8.50
2007,08,11,06,26,8.50
2007,08,11,06,27,8.50
2007,08,11,06,28,8.60
2007,08,11,06,29,8.60
2007,08,11,06,30,8.60
2007,08,11,06,31,8.70
2007,08,11,06,32,8.70
2007,08,11,06,33,8.70
2007,08,11,06,34,8.80
2007,08,11,06,35,8.90
2007,08,11,06,36,8.90
2007,08,11,06,37,9.00
2007,08,11,06,38,9.00
2007,08,11,06,39,9.10
2007,08,11,06,40,9.10
2007,08,11,06,41,9.20
2007,08,11,06,42,9.20
2007,08,11,06,43,9.20
2007,08,11,06,44,9.30
2007,08,11,06,45,9.30
2007,08,11,06,46,9.30
2007,08,11,06,47,9.40
2007,08,11,06,48,9.40
2007,08,11,06,49,9.40
2007,08,11,06,50,9.40
2007,08,11,06,51,9.40
2007,08,11,06,52,9.40
2007,08,11,06,53,9.40
2007,08,11,06,54,9.40
2007,08,11,06,55,9.40
2007,08,11,06,56,9.50
2007,08,11,06,57,9.50
2007,08,11,06,58,9.50
2007,08,11,06,59,9.50
2007,08,11,07,00,9.50
2007,08,11,07,01,9.50
2007,08,11,07,02,9.60
2007,08,11,07,03,9.60
2007,08,11,07,04,9.60
2007,08,11,07,05,9.70
2007,08,11,07,06,9.70
2007,08,11,07,07,9.70
2007,08,11,07,08,9.80
2007,08,11,07,09,9.90
2007,08,11,07,10,10.00
2007,08,11,07,11,10.10
2007,08,11,07,12,10.20
2007,08,11,07,13,10.30
2007,08,11,07,14,10.40
2007,08,11,07,15,10.40
2007,08,11,07,16,10.50
2007,08,11,07,17,10.60
2007,08,11,07,18,10.60
2007,08,11,07,19,10.60
2007,08,11,07,20,10.70
2007,08,11,07,21,10.70
2007,08,11,07,22,10.80
2007,08,11,07,23,10.80
2007,08,11,07,24,10.80
2007,08,11,07,25,10.80
2007,08,11,07,26,10.90
2007,08,11,07,27,10.90
2007,08,11,07,28,10.90
2007,08,11,07,29,11.00
2007,08,11,07,30,11.10
2007,08,11,07,31,11.10
2007,08,11,07,32,11.10
2007,08,11,07,33,11.20
2007,08,11,07,34,11.20
2007,08,11,07,35,11.30
2007,08,11,07,36,11.30
2007,08,11,07,37,11.30
2007,08,11,07,38,11.30
2007,08,11,07,39,11.40
2007,08,11,07,40,11.40
2007,08,11,07,41,11.40
2007,08,11,07,42,11.40
2007,08,11,07,43,11.40
2007,08,11,07,44,11.40
2007,08,11,07,45,11.60
2007,08,11,07,46,11.60
2007,08,11,07,47,11.70
2007,08,11,07,48,11.80
2007,08,11,07,49,11.80
2007,08,11,07,50,11.90
2007,08,11,07,51,12.00
2007,08,11,07,52,12.00
2007,08,11,07,53,12.10
2007,08,11,07,54,12.20
2007,08,11,07,55,12.30
2007,08,11,07,56,12.30
2007,08,11,07,57,12.40
2007,08,11,07,58,12.50
2007,08,11,07,59,12.60
2007,08,11,08,00,12.70
2007,08,11,08,01,12.80
2007,08,11,08,02,12.80
2007,08,11,08,03,12.80
2007,08,11,08,04,12.80
2007,08,11,08,05,12.80
2007,08,11,08,06,12.90
2007,08,11,08,07,13.00
2007,08,11,08,08,13.00
2007,08,11,08,09,13.10
2007,08,11,08,10,13.20
2007,08,11,08,11,13.30
2007,08,11,08,12,13.30
2007,08,11,08,13,13.30
2007,08,11,08,14,13.40
2007,08,11,08,15,13.50
2007,08,11,08,16,13.50
2007,08,11,08,17,13.60
2007,08,11,08,18,13.60
2007,08,11,08,19,13.70
2007,08,11,08,20,13.70
2007,08,11,08,21,13.70
2007,08,11,08,22,13.70
2007,08,11,08,23,13.70
2007,08,11,08,24,13.70
2007,08,11,08,25,13.70
2007,08,11,08,26,13.80
2007,08,11,08,27,13.80
2007,08,11,08,28,13.80
2007,08,11,08,29,13.80
2007,08,11,08,30,13.90
2007,08,11,08,31,13.90
2007,08,11,08,32,13.90
2007,08,11,08,33,14.00
2007,08,11,08,34,14.00
2007,08,11,08,35,14.00
2007,08,11,08,36,14.00
2007,08,11,08,37,14.00
2007,08,11,08,38,14.00
2007,08,11,08,39,14.10
2007,08,11,08,40,14.20
2007,08,11,08,41,14.20
2007,08,11,08,42,14.20
2007,08,11,08,43,14.30
2007,08,11,08,44,14.30
2007,08,11,08,45,14.40
2007,08,11,08,46,14.50
2007,08,11,08,47,14.50
2007,08,11,08,48,14.60
2007,08,11,08,49,14.70
2007,08,11,08,50,14.80
2007,08,11,08,51,14.80
2007,08,11,08,52,14.80
2007,08,11,08,53,14.90
2007,08,11,08,54,14.90
2007,08,11,08,55,14.80
2007,08,11,08,56,14.80
2007,08,11,08,57,14.80
2007,08,11,08,58,14.80
2007,08,11,08,59,14.80
2007,08,11,09,00,14.90
2007,08,11,09,01,14.90
2007,08,11,09,02,14.90
2007,08,11,09,03,14.90
2007,08,11,09,04,14.90
2007,08,11,09,05,14.90
2007,08,11,09,06,14.90
2007,08,11,09,07,15.00
2007,08,11,09,08,15.00
2007,08,11,09,09,15.00
2007,08,11,09,10,15.10
2007,08,11,09,11,15.20
2007,08,11,09,12,15.20
2007,08,11,09,13,15.30
2007,08,11,09,14,15.30
2007,08,11,09,15,15.30
2007,08,11,09,16,15.20
2007,08,11,09,17,15.10
2007,08,11,09,18,15.10
2007,08,11,09,19,15.00
2007,08,11,09,20,15.00
2007,08,11,09,21,15.00
2007,08,11,09,22,15.00
2007,08,11,09,23,15.00
2007,08,11,09,24,15.10
2007,08,11,09,25,15.10
2007,08,11,09,26,15.10
2007,08,11,09,27,15.10
2007,08,11,09,28,15.10
2007,08,11,09,29,15.10
2007,08,11,09,30,15.10
2007,08,11,09,31,15.00
2007,08,11,09,32,14.90
2007,08,11,09,33,14.90
2007,08,11,09,34,14.80
2007,08,11,09,35,14.80
2007,08,11,09,36,14.80
2007,08,11,09,37,14.80
2007,08,11,09,38,14.80
2007,08,11,09,39,14.80
2007,08,11,09,40,14.80
2007,08,11,09,41,14.80
2007,08,11,09,42,14.80
2007,08,11,09,43,14.80
2007,08,11,09,44,14.80
2007,08,11,09,45,14.80
2007,08,11,09,46,14.80
2007,08,11,09,47,14.80
2007,08,11,09,48,14.80
2007,08,11,09,49,14.80
2007,08,11,09,50,14.80
2007,08,11,09,51,14.90
2007,08,11,09,52,14.90
2007,08,11,09,53,14.90
2007,08,11,09,54,15.00
2007,08,11,09,55,15.10
2007,08,11,09,56,15.10
2007,08,11,09,57,15.20
2007,08,11,09,58,15.30
2007,08,11,09,59,15.40
2007,08,11,10,00,15.50
2007,08,11,10,01,15.50
2007,08,11,10,02,15.60
2007,08,11,10,03,15.50
2007,08,11,10,04,15.40
2007,08,11,10,05,15.30
2007,08,11,10,06,15.10
2007,08,11,10,07,15.10
2007,08,11,10,08,15.00
2007,08,11,10,09,15.00
2007,08,11,10,10,15.10
2007,08,11,10,11,15.10
2007,08,11,10,12,15.20
2007,08,11,10,13,15.30
2007,08,11,10,14,15.20
2007,08,11,10,15,15.20
2007,08,11,10,16,15.20
2007,08,11,10,17,15.20
2007,08,11,10,18,15.20
2007,08,11,10,19,15.20
2007,08,11,10,20,15.20
2007,08,11,10,21,15.30
2007,08,11,10,22,15.30
2007,08,11,10,23,15.40
2007,08,11,10,24,15.50
2007,08,11,10,25,15.60
2007,08,11,10,26,15.70
2007,08,11,10,27,15.80
2007,08,11,10,28,15.90
2007,08,11,10,29,16.10
2007,08,11,10,30,16.20
2007,08,11,10,31,16.30
2007,08,11,10,32,16.30
2007,08,11,10,33,16.20
2007,08,11,10,34,16.20
2007,08,11,10,35,16.30
2007,08,11,10,36,16.40
2007,08,11,10,37,16.40
2007,08,11,10,38,16.40
2007,08,11,10,39,16.40
2007,08,11,10,40,16.60
2007,08,11,10,41,16.60
2007,08,11,10,42,16.70
2007,08,11,10,43,16.70
2007,08,11,10,44,16.70
2007,08,11,10,45,16.80
2007,08,11,10,46,16.70
2007,08,11,10,47,16.70
2007,08,11,10,48,16.70
2007,08,11,10,49,16.70
2007,08,11,10,50,16.70
2007,08,11,10,51,16.70
2007,08,11,10,52,16.80
2007,08,11,10,53,16.80
2007,08,11,10,54,16.90
2007,08,11,10,55,17.00
2007,08,11,10,56,16.90
2007,08,11,10,57,16.90
2007,08,11,10,58,16.90
2007,08,11,10,59,16.80
2007,08,11,11,00,16.70
2007,08,11,11,01,16.70
2007,08,11,11,02,16.70
2007,08,11,11,03,16.70
2007,08,11,11,04,16.70
2007,08,11,11,05,16.70
2007,08,11,11,06,16.70
2007,08,11,11,07,16.60
2007,08,11,11,08,16.60
2007,08,11,11,09,16.50
2007,08,11,11,10,16.40
2007,08,11,11,11,16.40
2007,08,11,11,12,16.40
2007,08,11,11,13,16.50
2007,08,11,11,14,16.60
2007,08,11,11,15,16.70
2007,08,11,11,16,16.70
2007,08,11,11,17,16.80
2007,08,11,11,18,16.90
2007,08,11,11,19,17.00
2007,08,11,11,20,17.10
2007,08,11,11,21,17.30
2007,08,11,11,22,17.40
2007,08,11,11,23,17.50
2007,08,11,11,24,17.60
2007,08,11,11,25,17.60
2007,08,11,11,26,17.70
2007,08,11,11,27,17.80
2007,08,11,11,28,17.80
2007,08,11,11,29,17.90
2007,08,11,11,30,17.90
2007,08,11,11,31,17.90
2007,08,11,11,32,17.90
2007,08,11,11,33,17.90
2007,08,11,11,34,18.00
2007,08,11,11,35,18.10
2007,08,11,11,36,18.10
2007,08,11,11,37,18.20
2007,08,11,11,38,18.20
2007,08,11,11,39,18.20
2007,08,11,11,40,18.10
2007,08,11,11,41,18.10
2007,08,11,11,42,18.00
2007,08,11,11,43,17.90
2007,08,11,11,44,17.90
2007,08,11,11,45,17.80
2007,08,11,11,46,17.90
2007,08,11,11,47,17.90
2007,08,11,11,48,17.90
2007,08,11,11,49,17.90
2007,08,11,11,50,17.90
2007,08,11,11,51,17.90
2007,08,11,11,52,17.90
2007,08,11,11,53,17.90
2007,08,11,11,54,17.90
2007,08,11,11,55,17.90
2007,08,11,11,56,17.90
2007,08,11,11,57,17.80
2007,08,11,11,58,17.70
2007,08,11,11,59,17.60
2007,08,11,12,00,17.50
2007,08,11,12,01,17.50
2007,08,11,12,02,17.50
2007,08,11,12,03,17.50
2007,08,11,12,04,17.50
2007,08,11,12,05,17.50
2007,08,11,12,06,17.50
2007,08,11,12,07,17.50
2007,08,11,12,08,17.60
2007,08,11,12,09,17.70
2007,08,11,12,10,17.70
2007,08,11,12,11,17.80
2007,08,11,12,12,17.80
2007,08,11,12,13,17.70
2007,08,11,12,14,17.60
2007,08,11,12,15,17.50
2007,08,11,12,16,17.50
2007,08,11,12,17,17.40
2007,08,11,12,18,17.30
2007,08,11,12,19,17.30
2007,08,11,12,20,17.30
2007,08,11,12,21,17.30
2007,08,11,12,22,17.30
2007,08,11,12,23,17.20
2007,08,11,12,24,17.20
2007,08,11,12,25,17.10
2007,08,11,12,26,17.10
2007,08,11,12,27,17.00
2007,08,11,12,28,17.00
2007,08,11,12,29,17.00
2007,08,11,12,30,17.10
2007,08,11,12,31,17.10
2007,08,11,12,32,17.20
2007,08,11,12,33,17.20
2007,08,11,12,34,17.30
2007,08,11,12,35,17.30
2007,08,11,12,36,17.30
2007,08,11,12,37,17.40
2007,08,11,12,38,17.40
2007,08,11,12,39,17.40
2007,08,11,12,40,17.50
2007,08,11,12,41,17.50
2007,08,11,12,42,17.60
2007,08,11,12,43,17.60
2007,08,11,12,44,17.60
2007,08,11,12,45,17.70
2007,08,11,12,46,17.70
2007,08,11,12,47,17.70
2007,08,11,12,48,17.70
2007,08,11,12,49,17.70
2007,08,11,12,50,17.80
2007,08,11,12,51,17.90
2007,08,11,12,52,17.90
2007,08,11,12,53,18.00
2007,08,11,12,54,18.10
2007,08,11,12,55,18.10
2007,08,11,12,56,18.20
2007,08,11,12,57,18.20
2007,08,11,12,58,18.20
2007,08,11,12,59,18.20
2007,08,11,13,00,18.10
2007,08,11,13,01,18.00
2007,08,11,13,02,17.90
2007,08,11,13,03,17.90
2007,08,11,13,04,17.90
2007,08,11,13,05,17.90
2007,08,11,13,06,17.80
2007,08,11,13,07,17.80
2007,08,11,13,08,17.80
2007,08,11,13,09,17.80
2007,08,11,13,10,17.90
2007,08,11,13,11,17.90
2007,08,11,13,12,17.90
2007,08,11,13,13,17.80
2007,08,11,13,14,17.80
2007,08,11,13,15,17.80
2007,08,11,13,16,17.70
2007,08,11,13,17,17.70
2007,08,11,13,18,17.70
2007,08,11,13,19,17.80
2007,08,11,13,20,17.80
2007,08,11,13,21,17.80
2007,08,11,13,22,17.70
2007,08,11,13,23,17.60
2007,08,11,13,24,17.50
2007,08,11,13,25,17.50
2007,08,11,13,26,17.40
2007,08,11,13,27,17.40
2007,08,11,13,28,17.40
2007,08,11,13,29,17.40
2007,08,11,13,30,17.40
2007,08,11,13,31,17.30
2007,08,11,13,32,17.10
2007,08,11,13,33,16.90
2007,08,11,13,34,16.80
2007,08,11,13,35,16.70
2007,08,11,13,36,16.70
2007,08,11,13,37,16.70
2007,08,11,13,38,16.70
2007,08,11,13,39,16.70
2007,08,11,13,40,16.70
2007,08,11,13,41,16.70
2007,08,11,13,42,16.70
2007,08,11,13,43,16.70
2007,08,11,13,44,16.70
2007,08,11,13,45,16.70
2007,08,11,13,46,16.70
2007,08,11,13,47,16.70
2007,08,11,13,48,16.70
2007,08,11,13,49,16.70
2007,08,11,13,50,16.70
2007,08,11,13,51,16.70
2007,08,11,13,52,16.70
2007,08,11,13,53,16.70
2007,08,11,13,54,16.70
2007,08,11,13,55,16.80
2007,08,11,13,56,16.80
2007,08,11,13,57,16.80
2007,08,11,13,58,16.90
2007,08,11,13,59,16.90
2007,08,11,14,00,17.00
2007,08,11,14,01,17.10
2007,08,11,14,02,17.10
2007,08,11,14,03,17.20
2007,08,11,14,04,17.30
2007,08,11,14,05,17.40
2007,08,11,14,06,17.50
2007,08,11,14,07,17.60
2007,08,11,14,08,17.80
2007,08,11,14,09,17.90
2007,08,11,14,10,17.90
2007,08,11,14,11,17.90
2007,08,11,14,12,17.90
2007,08,11,14,13,17.90
2007,08,11,14,14,17.90
2007,08,11,14,15,17.90
2007,08,11,14,16,17.90
2007,08,11,14,17,17.80
2007,08,11,14,18,17.70
2007,08,11,14,19,17.50
2007,08,11,14,20,17.40
2007,08,11,14,21,17.30
2007,08,11,14,22,17.30
2007,08,11,14,23,17.30
2007,08,11,14,24,17.30
2007,08,11,14,25,17.30
2007,08,11,14,26,17.30
2007,08,11,14,27,17.20
2007,08,11,14,28,17.20
2007,08,11,14,29,17.10
2007,08,11,14,30,17.10
2007,08,11,14,31,17.10
2007,08,11,14,32,17.10
2007,08,11,14,33,17.00
2007,08,11,14,34,17.00
2007,08,11,14,35,16.90
2007,08,11,14,36,16.90
2007,08,11,14,37,16.90
2007,08,11,14,38,16.90
2007,08,11,14,39,16.80
2007,08,11,14,40,16.80
2007,08,11,14,41,16.70
2007,08,11,14,42,16.70
2007,08,11,14,43,16.70
2007,08,11,14,44,16.70
2007,08,11,14,45,16.80
2007,08,11,14,46,16.80
2007,08,11,14,47,16.90
2007,08,11,14,48,16.90
2007,08,11,14,49,16.80
2007,08,11,14,50,16.80
2007,08,11,14,51,16.80
2007,08,11,14,52,16.80
2007,08,11,14,53,16.80
2007,08,11,14,54,16.90
2007,08,11,14,55,16.80
2007,08,11,14,56,16.80
2007,08,11,14,57,16.80
2007,08,11,14,58,16.90
2007,08,11,14,59,16.90
2007,08,11,15,00,17.00
2007,08,11,15,01,17.00
2007,08,11,15,02,17.10
2007,08,11,15,03,17.20
2007,08,11,15,04,17.30
2007,08,11,15,05,17.30
2007,08,11,15,06,17.50
2007,08,11,15,07,17.60
2007,08,11,15,08,17.80
2007,08,11,15,09,18.00
2007,08,11,15,10,18.20
2007,08,11,15,11,18.50
2007,08,11,15,12,18.70
2007,08,11,15,13,19.00
2007,08,11,15,14,19.20
2007,08,11,15,15,19.40
2007,08,11,15,16,19.50
2007,08,11,15,17,19.60
2007,08,11,15,18,19.70
2007,08,11,15,19,19.80
2007,08,11,15,20,19.90
2007,08,11,15,21,19.90
2007,08,11,15,22,20.00
2007,08,11,15,23,20.10
2007,08,11,15,24,20.10
2007,08,11,15,25,20.20
2007,08,11,15,26,20.20
2007,08,11,15,27,20.20
2007,08,11,15,28,20.20
2007,08,11,15,29,20.20
2007,08,11,15,30,20.20
2007,08,11,15,31,20.20
2007,08,11,15,32,20.20
2007,08,11,15,33,20.30
2007,08,11,15,34,20.40
2007,08,11,15,35,20.50
2007,08,11,15,36,20.50
2007,08,11,15,37,20.60
2007,08,11,15,38,20.60
2007,08,11,15,39,20.60
2007,08,11,15,40,20.60
2007,08,11,15,41,20.60
2007,08,11,15,42,20.60
2007,08,11,15,43,20.60
2007,08,11,15,44,20.60
2007,08,11,15,45,20.50
2007,08,11,15,46,20.60
2007,08,11,15,47,20.60
2007,08,11,15,48,20.60
2007,08,11,15,49,20.60
2007,08,11,15,50,20.60
2007,08,11,15,51,20.60
2007,08,11,15,52,20.60
2007,08,11,15,53,20.60
2007,08,11,15,54,20.60
2007,08,11,15,55,20.60
2007,08,11,15,56,20.60
2007,08,11,15,57,20.60
2007,08,11,15,58,20.60
2007,08,11,15,59,20.60
2007,08,11,16,00,20.70
2007,08,11,16,01,20.70
2007,08,11,16,02,20.60
2007,08,11,16,03,20.60
2007,08,11,16,04,20.60
2007,08,11,16,05,20.50
2007,08,11,16,06,20.40
2007,08,11,16,07,20.40
2007,08,11,16,08,20.40
2007,08,11,16,09,20.30
2007,08,11,16,10,20.30
2007,08,11,16,11,20.30
2007,08,11,16,12,20.30
2007,08,11,16,13,20.30
2007,08,11,16,14,20.30
2007,08,11,16,15,20.30
2007,08,11,16,16,20.40
2007,08,11,16,17,20.40
2007,08,11,16,18,20.40
2007,08,11,16,19,20.40
2007,08,11,16,20,20.40
2007,08,11,16,21,20.40
2007,08,11,16,22,20.40
2007,08,11,16,23,20.40
2007,08,11,16,24,20.40
2007,08,11,16,25,20.50
2007,08,11,16,26,20.50
2007,08,11,16,27,20.50
2007,08,11,16,28,20.60
2007,08,11,16,29,20.60
2007,08,11,16,30,20.60
2007,08,11,16,31,20.60
2007,08,11,16,32,20.70
2007,08,11,16,33,20.60
2007,08,11,16,34,20.60
2007,08,11,16,35,20.60
2007,08,11,16,36,20.60
2007,08,11,16,37,20.60
2007,08,11,16,38,20.60
2007,08,11,16,39,20.50
2007,08,11,16,40,20.50
2007,08,11,16,41,20.50
2007,08,11,16,42,20.50
2007,08,11,16,43,20.50
2007,08,11,16,44,20.40
2007,08,11,16,45,20.40
2007,08,11,16,46,20.40
2007,08,11,16,47,20.40
2007,08,11,16,48,20.40
2007,08,11,16,49,20.40
2007,08,11,16,50,20.50
2007,08,11,16,51,20.50
2007,08,11,16,52,20.40
2007,08,11,16,53,20.20
2007,08,11,16,54,19.80
2007,08,11,16,55,19.40
2007,08,11,16,56,19.00
2007,08,11,16,57,18.70
2007,08,11,16,58,18.40
2007,08,11,16,59,18.20
2007,08,11,17,00,18.00
2007,08,11,17,01,17.80
2007,08,11,17,02,17.80
2007,08,11,17,03,17.70
2007,08,11,17,04,17.70
2007,08,11,17,05,17.50
2007,08,11,17,06,17.30
2007,08,11,17,07,17.30
2007,08,11,17,08,17.10
2007,08,11,17,09,17.00
2007,08,11,17,10,17.00
2007,08,11,17,11,16.90
2007,08,11,17,12,16.90
2007,08,11,17,13,16.80
2007,08,11,17,14,16.70
2007,08,11,17,15,16.70
2007,08,11,17,16,16.70
2007,08,11,17,17,16.60
2007,08,11,17,18,16.50
2007,08,11,17,19,16.40
2007,08,11,17,20,16.40
2007,08,11,17,21,16.40
2007,08,11,17,22,16.30
2007,08,11,17,23,16.30
2007,08,11,17,24,16.20
2007,08,11,17,25,16.20
2007,08,11,17,26,16.10
2007,08,11,17,27,16.10
2007,08,11,17,28,16.10
2007,08,11,17,29,16.10
2007,08,11,17,30,16.20
2007,08,11,17,31,16.20